GLD1620 TGPY-TNCM

Flight info

Callsign GLD1620
Flight time 1h 4m
Altitude 37000
Route EMKIS SORRL ZPATA
Aircraft B738/M-SDE2E3FGHIRWXY/LB1

Departure

Time 2026-04-20 19:48
Airport Maurice Bishop International Airport (TGPY)

Arrival

Time 2026-04-20 20:52
Airport Princess Juliana International Airport (TNCM)
Time Latitude Longitude Altitude Speed Heading
2026-04-20 19:34 12.00658 -61.78619 41 ft 0 kts
2026-04-20 19:37 12.00665 -61.78613 42 ft 4 kts 48°
2026-04-20 19:38 12.00672 -61.78588 41 ft 5 kts 83°
2026-04-20 19:38 12.00669 -61.78587 40 ft 3 kts 36°
2026-04-20 19:38 12.00688 -61.78575 41 ft 2 kts 211°
2026-04-20 19:38 12.00689 -61.78575 41 ft 8 kts 211°
2026-04-20 19:39 12.00690 -61.78576 69 ft 3 kts 204°
2026-04-20 19:39 12.00689 -61.78576 62 ft 0 kts 199°
2026-04-20 19:43 12.00686 -61.78575 56 ft 5 kts 199°
2026-04-20 19:43 12.00654 -61.78572 42 ft 7 kts 173°
2026-04-20 19:43 12.00596 -61.78583 41 ft 10 kts 197°
2026-04-20 19:43 12.00505 -61.78599 42 ft 14 kts 186°
2026-04-20 19:44 12.00414 -61.78625 44 ft 10 kts 219°
2026-04-20 19:44 12.00397 -61.78693 45 ft 11 kts 275°
2026-04-20 19:44 12.00404 -61.78780 44 ft 13 kts 274°
2026-04-20 19:44 12.00408 -61.78870 44 ft 13 kts 272°
2026-04-20 19:45 12.00409 -61.78961 44 ft 14 kts 270°
2026-04-20 19:45 12.00408 -61.79062 43 ft 14 kts 269°
2026-04-20 19:45 12.00408 -61.79160 42 ft 13 kts 270°
2026-04-20 19:45 12.00408 -61.79257 40 ft 14 kts 270°
2026-04-20 19:46 12.00411 -61.79362 38 ft 15 kts 272°
2026-04-20 19:46 12.00414 -61.79475 36 ft 17 kts 270°
2026-04-20 19:46 12.00415 -61.79631 33 ft 24 kts 270°
2026-04-20 19:46 12.00427 -61.79783 29 ft 21 kts 291°
2026-04-20 19:47 12.00436 -61.79860 29 ft 3 kts 224°
2026-04-20 19:47 12.00420 -61.79856 30 ft 3 kts 133°
2026-04-20 19:47 12.00417 -61.79825 30 ft 15 kts 91°
2026-04-20 19:47 12.00412 -61.79375 37 ft 111 kts 90°
2026-04-20 19:48 12.00387 -61.78310 173 ft 182 kts 94°
2026-04-20 19:48 12.00353 -61.76901 885 ft 205 kts 82°
2026-04-20 19:48 12.00834 -61.75594 1425 ft 197 kts 54°
2026-04-20 19:48 12.01902 -61.74681 1632 ft 214 kts 24°
2026-04-20 19:49 12.03491 -61.74608 1889 ft 249 kts 353°
2026-04-20 19:49 12.05267 -61.74947 2464 ft 264 kts 354°
2026-04-20 19:49 12.07100 -61.75205 3300 ft 271 kts 356°
2026-04-20 19:49 12.08945 -61.75350 4283 ft 267 kts 360°
2026-04-20 19:50 12.10808 -61.75403 5153 ft 271 kts
2026-04-20 19:50 12.12705 -61.75380 5984 ft 275 kts
2026-04-20 19:50 12.14631 -61.75297 6756 ft 279 kts
2026-04-20 19:50 12.16587 -61.75168 7534 ft 283 kts
2026-04-20 19:51 12.18560 -61.75007 8305 ft 286 kts
2026-04-20 19:51 12.20559 -61.74821 9097 ft 290 kts
2026-04-20 19:51 12.22579 -61.74615 9880 ft 294 kts
2026-04-20 19:51 12.24637 -61.74394 10421 ft 306 kts
2026-04-20 19:52 12.26850 -61.74149 10582 ft 331 kts
2026-04-20 19:52 12.29204 -61.73880 10854 ft 348 kts
2026-04-20 19:52 12.31598 -61.73601 11418 ft 354 kts
2026-04-20 19:52 12.34056 -61.73310 12092 ft 357 kts
2026-04-20 19:53 12.36544 -61.73012 12788 ft 361 kts
2026-04-20 19:53 12.39040 -61.72712 13482 ft 364 kts
2026-04-20 19:53 12.41575 -61.72407 14117 ft 368 kts
2026-04-20 19:53 12.44133 -61.72099 14746 ft 372 kts
2026-04-20 19:54 12.46714 -61.71788 15375 ft 375 kts
2026-04-20 19:54 12.49319 -61.71474 15991 ft 379 kts
2026-04-20 19:54 12.51957 -61.71155 16602 ft 383 kts
2026-04-20 19:54 12.54614 -61.70835 17205 ft 387 kts
2026-04-20 19:55 12.57267 -61.70515 17783 ft 390 kts
2026-04-20 19:55 12.60015 -61.70184 18349 ft 394 kts
2026-04-20 19:55 12.62703 -61.69859 18872 ft 396 kts
2026-04-20 19:55 12.65446 -61.69528 19427 ft 397 kts
2026-04-20 19:56 12.67269 -61.69307 19808 ft 398 kts
2026-04-20 19:56 12.70955 -61.68862 20509 ft 401 kts
2026-04-20 19:56 12.73738 -61.68526 21008 ft 403 kts
2026-04-20 19:56 12.76533 -61.68188 21512 ft 405 kts
2026-04-20 19:57 12.79332 -61.67850 22004 ft 407 kts
2026-04-20 19:57 12.82157 -61.67509 22508 ft 409 kts
2026-04-20 19:57 12.84950 -61.67171 22990 ft 411 kts
2026-04-20 19:57 12.87788 -61.66827 23451 ft 413 kts
2026-04-20 19:58 12.90654 -61.66481 23819 ft 415 kts
2026-04-20 19:58 12.93533 -61.66133 24127 ft 419 kts
2026-04-20 19:58 12.96444 -61.65781 24433 ft 423 kts
2026-04-20 19:58 12.99382 -61.65426 24755 ft 426 kts
2026-04-20 19:59 13.02345 -61.65067 25074 ft 430 kts
2026-04-20 19:59 13.05320 -61.64707 25385 ft 433 kts
2026-04-20 19:59 13.08325 -61.64343 25686 ft 436 kts
2026-04-20 19:59 13.11305 -61.63982 25972 ft 439 kts
2026-04-20 20:00 13.14350 -61.63613 26277 ft 442 kts
2026-04-20 20:00 13.17417 -61.63241 26584 ft 445 kts
2026-04-20 20:00 13.20501 -61.62867 26883 ft 448 kts
2026-04-20 20:00 13.23608 -61.62490 27177 ft 451 kts
2026-04-20 20:01 13.26728 -61.62111 27462 ft 454 kts
2026-04-20 20:01 13.29877 -61.61729 27751 ft 456 kts
2026-04-20 20:01 13.33043 -61.61344 28034 ft 459 kts
2026-04-20 20:01 13.36178 -61.60963 28296 ft 462 kts
2026-04-20 20:02 13.39384 -61.60574 28566 ft 465 kts
2026-04-20 20:02 13.42612 -61.60181 28824 ft 468 kts
2026-04-20 20:02 13.45852 -61.59787 29075 ft 471 kts
2026-04-20 20:02 13.49114 -61.59390 29332 ft 473 kts
2026-04-20 20:03 13.52389 -61.58991 29582 ft 476 kts
2026-04-20 20:03 13.55694 -61.58589 29818 ft 479 kts
2026-04-20 20:03 13.59011 -61.58318 30038 ft 477 kts 355°
2026-04-20 20:03 13.62309 -61.58518 30237 ft 473 kts 346°
2026-04-20 20:04 13.65494 -61.59134 30471 ft 472 kts 343°
2026-04-20 20:04 13.68705 -61.59820 30683 ft 473 kts 342°
2026-04-20 20:04 13.71933 -61.60524 30924 ft 474 kts 342°
2026-04-20 20:04 13.75158 -61.61220 31231 ft 473 kts 343°
2026-04-20 20:05 13.78381 -61.61904 31568 ft 472 kts 343°
2026-04-20 20:05 13.81599 -61.62575 31891 ft 472 kts 343°
2026-04-20 20:05 13.84812 -61.63238 32198 ft 472 kts 343°
2026-04-20 20:05 13.88029 -61.63898 32511 ft 471 kts 343°
2026-04-20 20:06 13.91202 -61.64546 32863 ft 470 kts 342°
2026-04-20 20:06 13.94405 -61.65201 33203 ft 469 kts 342°
2026-04-20 20:06 13.97612 -61.65856 33544 ft 469 kts 342°
2026-04-20 20:06 14.00806 -61.66510 33883 ft 468 kts 342°
2026-04-20 20:07 14.03993 -61.67163 34178 ft 467 kts 342°
2026-04-20 20:07 14.07173 -61.67815 34482 ft 466 kts 342°
2026-04-20 20:07 14.10351 -61.68467 34790 ft 465 kts 342°
2026-04-20 20:07 14.13516 -61.69116 35085 ft 464 kts 342°
2026-04-20 20:08 14.16679 -61.69766 35369 ft 463 kts 342°
2026-04-20 20:08 14.19833 -61.70414 35648 ft 462 kts 342°
2026-04-20 20:08 14.22981 -61.71060 35941 ft 461 kts 342°
2026-04-20 20:08 14.26126 -61.71707 36220 ft 460 kts 342°
2026-04-20 20:09 14.29267 -61.72352 36496 ft 460 kts 342°
2026-04-20 20:09 14.32403 -61.72997 36773 ft 459 kts 342°
2026-04-20 20:09 14.35528 -61.73640 36995 ft 459 kts 342°
2026-04-20 20:10 14.41833 -61.74941 36978 ft 463 kts 342°
2026-04-20 20:10 14.48087 -61.76225 36968 ft 457 kts 342°
2026-04-20 20:11 14.54292 -61.77500 36984 ft 454 kts 342°
2026-04-20 20:11 14.60481 -61.78777 36983 ft 453 kts 342°
2026-04-20 20:12 14.66652 -61.80051 36980 ft 452 kts 342°
2026-04-20 20:12 14.72819 -61.81324 36987 ft 452 kts 342°
2026-04-20 20:13 14.82021 -61.83225 36986 ft 452 kts 342°
2026-04-20 20:13 14.88192 -61.84500 36985 ft 453 kts 342°
2026-04-20 20:14 14.94379 -61.85779 36990 ft 453 kts 342°
2026-04-20 20:14 15.00526 -61.87051 36987 ft 454 kts 342°
2026-04-20 20:15 15.06717 -61.88332 36992 ft 454 kts 343°
2026-04-20 20:15 15.12906 -61.89614 36992 ft 454 kts 343°
2026-04-20 20:16 15.19091 -61.90896 36987 ft 453 kts 343°
2026-04-20 20:16 15.24125 -61.92258 36990 ft 445 kts 333°
2026-04-20 20:17 15.30816 -61.94986 36993 ft 444 kts 333°
2026-04-20 20:17 15.36554 -61.97341 36993 ft 444 kts 333°
2026-04-20 20:18 15.41366 -61.99297 36997 ft 443 kts 333°
2026-04-20 20:18 15.47066 -62.01601 36991 ft 442 kts 333°
2026-04-20 20:19 15.52802 -62.03916 36996 ft 442 kts 334°
2026-04-20 20:19 15.59454 -62.06602 37001 ft 441 kts 334°
2026-04-20 20:20 15.64244 -62.08538 36996 ft 441 kts 334°
2026-04-20 20:20 15.69910 -62.10829 36992 ft 440 kts 334°
2026-04-20 20:21 15.75618 -62.13139 36995 ft 440 kts 334°
2026-04-20 20:21 15.81313 -62.15445 36999 ft 439 kts 334°
2026-04-20 20:22 15.87009 -62.17753 36995 ft 439 kts 334°
2026-04-20 20:22 15.92658 -62.20044 36993 ft 439 kts 334°
2026-04-20 20:23 15.98347 -62.22351 37000 ft 439 kts 334°
2026-04-20 20:23 16.04037 -62.24661 36999 ft 439 kts 334°
2026-04-20 20:24 16.09721 -62.26969 36999 ft 439 kts 334°
2026-04-20 20:24 16.15375 -62.29267 37003 ft 439 kts 334°
2026-04-20 20:25 16.21073 -62.31585 36639 ft 445 kts 334°
2026-04-20 20:25 16.23953 -62.32758 36124 ft 443 kts 334°
2026-04-20 20:25 16.26820 -62.33925 35494 ft 443 kts 334°
2026-04-20 20:26 16.29696 -62.35095 34841 ft 444 kts 334°
2026-04-20 20:26 16.32579 -62.36269 34277 ft 443 kts 335°
2026-04-20 20:26 16.35444 -62.37435 33720 ft 441 kts 335°
2026-04-20 20:26 16.38291 -62.38594 33214 ft 437 kts 335°
2026-04-20 20:27 16.41117 -62.39745 32717 ft 434 kts 335°
2026-04-20 20:27 16.43874 -62.40868 32245 ft 430 kts 335°
2026-04-20 20:27 16.46646 -62.41999 31781 ft 426 kts 336°
2026-04-20 20:27 16.49389 -62.43118 31315 ft 422 kts 336°
2026-04-20 20:28 16.52111 -62.44229 30857 ft 418 kts 336°
2026-04-20 20:28 16.54809 -62.45331 30407 ft 415 kts 336°
2026-04-20 20:28 16.57489 -62.46425 29935 ft 412 kts 336°
2026-04-20 20:28 16.60134 -62.47506 29421 ft 408 kts 336°
2026-04-20 20:29 16.62770 -62.48583 28922 ft 404 kts 336°
2026-04-20 20:29 16.65377 -62.49649 28447 ft 400 kts 337°
2026-04-20 20:29 16.67954 -62.50702 27983 ft 395 kts 337°
2026-04-20 20:29 16.70495 -62.51741 27527 ft 392 kts 337°
2026-04-20 20:30 16.72988 -62.52761 27080 ft 388 kts 337°
2026-04-20 20:30 16.75479 -62.53780 26638 ft 384 kts 337°
2026-04-20 20:30 16.77965 -62.54798 26202 ft 381 kts 337°
2026-04-20 20:30 16.80427 -62.55806 25755 ft 378 kts 337°
2026-04-20 20:31 16.82866 -62.56805 25316 ft 375 kts 337°
2026-04-20 20:31 16.85289 -62.57798 24888 ft 373 kts 337°
2026-04-20 20:31 16.87696 -62.58785 24449 ft 371 kts 337°
2026-04-20 20:31 16.90096 -62.59768 24007 ft 369 kts 337°
2026-04-20 20:32 16.92448 -62.60733 23570 ft 368 kts 337°
2026-04-20 20:32 16.94827 -62.61709 23070 ft 366 kts 337°
2026-04-20 20:32 16.97186 -62.62677 22611 ft 363 kts 337°
2026-04-20 20:32 16.99524 -62.63636 22170 ft 360 kts 337°
2026-04-20 20:33 17.01852 -62.64591 21736 ft 357 kts 337°
2026-04-20 20:33 17.04159 -62.65538 21316 ft 355 kts 337°
2026-04-20 20:33 17.06444 -62.66477 20896 ft 352 kts 338°
2026-04-20 20:33 17.08716 -62.67410 20483 ft 350 kts 338°
2026-04-20 20:34 17.10949 -62.68328 20074 ft 348 kts 338°
2026-04-20 20:34 17.13195 -62.69251 19665 ft 346 kts 338°
2026-04-20 20:34 17.15428 -62.70169 19264 ft 345 kts 338°
2026-04-20 20:34 17.17656 -62.71086 18838 ft 344 kts 338°
2026-04-20 20:35 17.19883 -62.72002 18447 ft 343 kts 338°
2026-04-20 20:35 17.22095 -62.72911 18001 ft 342 kts 338°
2026-04-20 20:35 17.24303 -62.73820 17555 ft 340 kts 338°
2026-04-20 20:35 17.26496 -62.74723 17132 ft 337 kts 338°
2026-04-20 20:36 17.28672 -62.75619 16719 ft 335 kts 338°
2026-04-20 20:36 17.30830 -62.76508 16334 ft 333 kts 338°
2026-04-20 20:36 17.32951 -62.77381 15940 ft 331 kts 338°
2026-04-20 20:36 17.35091 -62.78263 15535 ft 330 kts 338°
2026-04-20 20:37 17.37221 -62.79141 15109 ft 329 kts 338°
2026-04-20 20:37 17.39349 -62.80019 14707 ft 329 kts 338°
2026-04-20 20:37 17.41475 -62.80896 14285 ft 329 kts 338°
2026-04-20 20:37 17.43609 -62.81776 13869 ft 329 kts 338°
2026-04-20 20:38 17.45734 -62.82653 13413 ft 328 kts 339°
2026-04-20 20:38 17.47762 -62.83719 12923 ft 328 kts 324°
2026-04-20 20:38 17.49492 -62.85320 12320 ft 333 kts 317°
2026-04-20 20:38 17.51125 -62.86987 11867 ft 332 kts 316°
2026-04-20 20:39 17.52785 -62.88706 11455 ft 329 kts 316°
2026-04-20 20:39 17.54387 -62.90359 11059 ft 327 kts 316°
2026-04-20 20:39 17.56008 -62.92020 10660 ft 325 kts 317°
2026-04-20 20:39 17.57614 -62.93659 10412 ft 318 kts 318°
2026-04-20 20:40 17.59182 -62.95252 10259 ft 309 kts 318°
2026-04-20 20:40 17.60700 -62.96789 10121 ft 299 kts 318°
2026-04-20 20:40 17.62179 -62.98285 9962 ft 291 kts 318°
2026-04-20 20:40 17.63616 -62.99736 9639 ft 290 kts 318°
2026-04-20 20:41 17.65077 -63.01211 9326 ft 287 kts 318°
2026-04-20 20:41 17.66516 -63.02661 9008 ft 286 kts 318°
2026-04-20 20:41 17.67923 -63.04079 8704 ft 283 kts 319°
2026-04-20 20:41 17.69339 -63.05509 8404 ft 282 kts 318°
2026-04-20 20:42 17.70745 -63.06929 8098 ft 281 kts 318°
2026-04-20 20:42 17.72147 -63.08345 7793 ft 279 kts 318°
2026-04-20 20:42 17.73546 -63.09758 7492 ft 278 kts 318°
2026-04-20 20:42 17.74935 -63.11162 7185 ft 278 kts 318°
2026-04-20 20:43 17.76328 -63.12570 6890 ft 277 kts 318°
2026-04-20 20:43 17.77712 -63.13968 6575 ft 277 kts 318°
2026-04-20 20:43 17.79102 -63.15374 6254 ft 277 kts 318°
2026-04-20 20:43 17.80487 -63.16775 5948 ft 276 kts 318°
2026-04-20 20:44 17.81848 -63.18153 5627 ft 273 kts 318°
2026-04-20 20:44 17.83191 -63.19514 5343 ft 264 kts 319°
2026-04-20 20:44 17.84497 -63.20837 5060 ft 257 kts 319°
2026-04-20 20:44 17.85763 -63.22119 4792 ft 251 kts 319°
2026-04-20 20:45 17.87014 -63.23385 4549 ft 250 kts 319°
2026-04-20 20:45 17.88276 -63.24662 4310 ft 253 kts 319°
2026-04-20 20:45 17.89521 -63.25923 4079 ft 242 kts 319°
2026-04-20 20:45 17.90695 -63.27115 3887 ft 225 kts 319°
2026-04-20 20:46 17.91926 -63.27945 3756 ft 200 kts 348°
2026-04-20 20:46 17.93202 -63.28220 3692 ft 181 kts 356°
2026-04-20 20:46 17.94406 -63.28407 3534 ft 174 kts 357°
2026-04-20 20:46 17.95570 -63.28584 3454 ft 167 kts 357°
2026-04-20 20:47 17.96750 -63.28762 3362 ft 172 kts 356°
2026-04-20 20:47 17.97941 -63.28946 3308 ft 174 kts 356°
2026-04-20 20:47 17.99134 -63.29132 3248 ft 173 kts 357°
2026-04-20 20:47 18.00320 -63.29161 3191 ft 168 kts 25°
2026-04-20 20:48 18.01105 -63.28362 3161 ft 161 kts 65°
2026-04-20 20:48 18.01502 -63.27282 2941 ft 159 kts 73°
2026-04-20 20:48 18.01803 -63.26168 2736 ft 155 kts 76°
2026-04-20 20:48 18.02046 -63.25088 2531 ft 153 kts 79°
2026-04-20 20:49 18.02221 -63.23984 2328 ft 155 kts 81°
2026-04-20 20:49 18.02382 -63.22866 2124 ft 154 kts 81°
2026-04-20 20:49 18.02540 -63.21761 1918 ft 154 kts 81°
2026-04-20 20:49 18.02701 -63.20636 1711 ft 156 kts 82°
2026-04-20 20:50 18.02860 -63.19520 1498 ft 152 kts 83°
2026-04-20 20:50 18.03015 -63.18426 1303 ft 154 kts 81°
2026-04-20 20:50 18.03175 -63.17317 1100 ft 155 kts 83°
2026-04-20 20:50 18.03333 -63.16206 899 ft 156 kts 83°
2026-04-20 20:51 18.03494 -63.15078 689 ft 154 kts 82°
2026-04-20 20:51 18.03645 -63.14004 438 ft 144 kts 82°
2026-04-20 20:51 18.03803 -63.12974 242 ft 142 kts 83°
2026-04-20 20:51 18.03936 -63.11968 65 ft 138 kts 82°
2026-04-20 20:52 18.04061 -63.11133 21 ft 61 kts 80°
2026-04-20 20:52 18.04122 -63.10995 21 ft 6 kts
2026-04-20 20:52 18.04164 -63.11018 22 ft 7 kts 303°
2026-04-20 20:52 18.04167 -63.11039 20 ft 0 kts 263°
2026-04-20 20:53 18.04166 -63.11042 20 ft 3 kts 263°
2026-04-20 20:53 18.04165 -63.11086 22 ft 7 kts 281°
2026-04-20 20:53 18.04188 -63.11105 20 ft 5 kts 350°
2026-04-20 20:54 18.04224 -63.11122 20 ft 5 kts 305°
2026-04-20 20:54 18.04229 -63.11157 20 ft 5 kts 268°
2026-04-20 20:54 18.04226 -63.11194 20 ft 5 kts 265°
2026-04-20 20:54 18.04220 -63.11231 20 ft 5 kts 258°
2026-04-20 20:55 18.04217 -63.11286 20 ft 9 kts 286°
2026-04-20 20:55 18.04245 -63.11305 20 ft 2 kts
2026-04-20 20:55 18.04284 -63.11289 20 ft 10 kts 17°
2026-04-20 20:55 18.04315 -63.11289 20 ft 0 kts 346°
2026-04-20 20:56 18.04326 -63.11292 20 ft 2 kts 350°
2026-04-20 20:56 18.04335 -63.11293 20 ft 0 kts 352°